K8MUD Weather Reports


Display with metric or nautical units.
time (UTC)temp
F
wind
direction
speed
MPH
gust
MPH
rain 1hr
in
rain 24hr
in
rain mn
in
humidity
%
barometer
mb
20260509160502 67 196 4.0 11.0 0.00 0.00 0.00 64 1002.3
20260509160454 67 194 4.0 10.0 0.00 0.00 0.00 65 1002.3
20260509160023 67 190 4.0 10.0 0.00 0.00 0.00 66 1002.4
20260509155953 66 189 5.0 10.0 0.00 0.00 0.00 67 1002.4
20260509155503 66 186 5.0 10.0 0.00 0.00 0.00 66 1002.4
20260509155453 66 185 5.0 10.0 0.00 0.00 0.00 66 1002.4
20260509155002 66 189 5.0 10.0 0.00 0.00 0.00 65 1002.4
20260509154953 66 190 5.0 10.0 0.00 0.00 0.00 65 1002.4
20260509154502 66 189 5.0 12.0 0.00 0.00 0.00 65 1002.3
20260509154453 66 190 5.0 12.0 0.00 0.00 0.00 65 1002.4
20260509154002 66 196 5.0 14.0 0.00 0.00 0.00 66 1002.5
20260509153953 66 197 5.0 14.0 0.00 0.00 0.00 66 1002.5
20260509153502 66 197 4.0 14.0 0.00 0.00 0.00 65 1002.5
20260509153453 66 197 3.0 14.0 0.00 0.00 0.00 65 1002.6
20260509153002 65 188 3.0 10.0 0.00 0.00 0.00 67 1002.6
20260509152953 65 187 3.0 10.0 0.00 0.00 0.00 68 1002.6
20260509152523 65 188 4.0 10.0 0.00 0.00 0.00 68 1002.7
20260509152453 65 191 4.0 10.0 0.00 0.00 0.00 67 1002.6
20260509152003 64 193 3.0 9.0 0.00 0.00 0.00 69 1002.7
20260509151953 64 195 3.0 9.0 0.00 0.00 0.00 69 1002.8
20260509151502 64 187 3.0 9.0 0.00 0.00 0.00 70 1002.9
20260509151453 64 182 3.0 9.0 0.00 0.00 0.00 69 1002.8
20260509151002 64 174 4.0 9.0 0.00 0.00 0.00 70 1003.0
20260509150953 64 170 4.0 9.0 0.00 0.00 0.00 70 1003.0
20260509150502 63 176 4.0 8.0 0.00 0.00 0.00 70 1003.1
20260509150453 63 179 4.0 8.0 0.00 0.00 0.00 71 1003.1
20260509150023 63 188 3.0 8.0 0.00 0.00 0.00 72 1003.2
20260509145953 63 189 4.0 12.0 0.00 0.00 0.00 71 1003.2
20260509145502 63 191 4.0 12.0 0.00 0.00 0.00 72 1003.3
20260509145453 63 189 4.0 12.0 0.00 0.00 0.00 72 1003.3
20260509145002 62 183 4.0 12.0 0.00 0.00 0.00 72 1003.2
20260509144952 62 181 4.0 7.0 0.00 0.00 0.00 73 1003.2
20260509144502 62 185 4.0 11.0 0.00 0.00 0.00 74 1003.3
20260509144452 62 188 5.0 11.0 0.00 0.00 0.00 74 1003.3
20260509144002 61 200 5.0 11.0 0.00 0.00 0.00 75 1003.3
20260509143952 61 203 5.0 11.0 0.00 0.00 0.00 76 1003.3
20260509143502 61 201 5.0 14.0 0.00 0.00 0.00 76 1003.5
20260509143452 61 200 5.0 14.0 0.00 0.00 0.00 76 1003.5
20260509143002 60 197 5.0 14.0 0.00 0.00 0.00 77 1003.4
20260509142952 60 195 5.0 14.0 0.00 0.00 0.00 76 1003.4
20260509142502 60 192 4.0 13.0 0.00 0.00 0.00 77 1003.4
20260509142452 60 190 4.0 9.0 0.00 0.00 0.00 78 1003.4
20260509142002 60 173 3.0 7.0 0.00 0.00 0.00 79 1003.5
20260509141952 60 175 4.0 8.0 0.00 0.00 0.00 79 1003.5
20260509141503 59 179 3.0 8.0 0.00 0.00 0.00 79 1003.5
20260509141452 59 182 3.0 8.0 0.00 0.00 0.00 79 1003.5
20260509141002 59 192 4.0 10.0 0.00 0.00 0.00 79 1003.7
20260509140952 59 196 4.0 10.0 0.00 0.00 0.00 80 1003.7
20260509140502 59 207 3.0 10.0 0.00 0.00 0.00 79 1003.8
20260509140452 59 209 3.0 10.0 0.00 0.00 0.00 80 1003.8
20260509140003 59 218 2.0 10.0 0.00 0.00 0.00 80 1003.8
20260509135952 59 215 2.0 7.0 0.00 0.00 0.00 80 1003.9
20260509135502 59 196 2.0 7.0 0.00 0.00 0.00 80 1003.9
20260509135452 59 192 2.0 7.0 0.00 0.00 0.00 80 1004.0
20260509135002 58 184 3.0 7.0 0.00 0.00 0.00 80 1003.9
20260509134952 58 179 3.0 6.0 0.00 0.00 0.00 81 1003.9
20260509134502 58 182 3.0 7.0 0.00 0.00 0.00 82 1003.8
20260509134451 58 185 4.0 9.0 0.00 0.00 0.00 81 1003.9
20260509134002 58 191 4.0 9.0 0.00 0.00 0.00 82 1003.9
20260509133951 58 195 4.0 9.0 0.00 0.00 0.00 82 1003.9
20260509133502 58 197 3.0 9.0 0.00 0.00 0.00 82 1004.1
20260509133451 58 197 3.0 9.0 0.00 0.00 0.00 83 1004.1
20260509133002 57 218 2.0 7.0 0.00 0.00 0.00 84 1004.2
20260509132951 57 218 3.0 7.0 0.00 0.00 0.00 84 1004.2
20260509132502 57 222 3.0 7.0 0.00 0.00 0.00 86 1004.3
20260509132451 57 226 3.0 7.0 0.00 0.00 0.00 86 1004.3
20260509132002 56 222 3.0 7.0 0.00 0.00 0.00 86 1004.4
20260509131951 56 223 3.0 7.0 0.00 0.00 0.00 86 1004.4
20260509131503 56 226 3.0 7.0 0.00 0.00 0.00 88 1004.4
20260509131451 56 224 3.0 7.0 0.00 0.00 0.00 88 1004.4
20260509131003 56 221 3.0 7.0 0.00 0.00 0.00 88 1004.5
20260509130951 56 220 3.0 7.0 0.00 0.00 0.00 89 1004.5
20260509130523 55 215 2.0 6.0 0.00 0.00 0.00 90 1004.4
20260509130451 55 215 2.0 6.0 0.00 0.00 0.00 90 1004.4
20260509130002 54 213 2.0 6.0 0.00 0.00 0.00 90 1004.3
20260509125951 54 215 2.0 6.0 0.00 0.00 0.00 91 1004.0
20260509125502 54 214 2.0 6.0 0.00 0.00 0.00 91 1004.1
20260509125451 54 213 2.0 6.0 0.00 0.00 0.00 91 1004.1
20260509125002 54 201 2.0 6.0 0.00 0.00 0.00 92 1004.1
20260509124951 54 197 2.0 6.0 0.00 0.00 0.00 92 1004.1
20260509124503 53 198 2.0 6.0 0.00 0.00 0.00 92 1004.2
20260509124451 53 197 2.0 6.0 0.00 0.00 0.00 92 1004.2
20260509124003 53 202 2.0 6.0 0.00 0.00 0.00 92 1004.2
20260509123951 53 201 2.0 6.0 0.00 0.00 0.00 92 1004.2
20260509123503 53 198 2.0 6.0 0.00 0.00 0.00 92 1004.2
20260509123450 53 196 2.0 6.0 0.00 0.00 0.00 92 1004.1
20260509123002 53 190 2.0 6.0 0.00 0.00 0.00 92 1004.2
20260509122950 53 191 2.0 5.0 0.00 0.00 0.00 92 1004.2
20260509122503 53 186 1.0 5.0 0.00 0.00 0.00 93 1004.2
20260509122450 53 187 1.0 4.0 0.00 0.00 0.00 93 1004.2
20260509122002 52 191 1.0 4.0 0.00 0.00 0.00 93 1004.2
20260509121950 52 193 1.0 4.0 0.00 0.00 0.00 93 1004.3
20260509121503 52 204 1.0 4.0 0.00 0.00 0.00 93 1004.5
20260509121450 52 204 1.0 4.0 0.00 0.00 0.00 93 1004.6
20260509121002 52 205 1.0 4.0 0.00 0.00 0.00 93 1004.6
20260509120950 52 205 1.0 4.0 0.00 0.00 0.00 93 1004.6
20260509120502 52 207 1.0 6.0 0.00 0.00 0.00 93 1004.7
20260509120450 52 208 1.0 6.0 0.00 0.00 0.00 93 1004.7
20260509120024 52 210 1.0 6.0 0.00 0.00 0.00 93 1004.8
20260509115950 52 210 1.0 6.0 0.00 0.00 0.00 93 1004.9
20260509115502 52 215 1.0 4.0 0.00 0.00 0.00 93 1004.9
20260509115450 52 216 1.0 4.0 0.00 0.00 0.00 93 1004.9
20260509115003 51 225 2.0 4.0 0.00 0.00 0.00 93 1004.9
20260509114950 51 227 2.0 4.0 0.00 0.00 0.00 93 1004.9
20260509114503 51 229 2.0 8.0 0.00 0.00 0.00 93 1004.9
20260509114450 51 226 3.0 8.0 0.00 0.00 0.00 93 1004.9
20260509114023 51 218 3.0 8.0 0.00 0.00 0.00 93 1004.9
20260509113950 51 215 2.0 8.0 0.00 0.00 0.00 93 1004.9
20260509113502 51 209 2.0 7.0 0.00 0.00 0.00 93 1004.8
20260509113450 51 213 2.0 7.0 0.00 0.00 0.00 93 1004.8
20260509113002 50 215 1.0 7.0 0.00 0.00 0.00 93 1004.8
20260509112950 50 218 1.0 6.0 0.00 0.00 0.00 93 1004.9
20260509112503 50 218 2.0 6.0 0.00 0.00 0.00 93 1004.9
20260509112449 50 219 1.0 6.0 0.00 0.00 0.00 93 1004.9
20260509112002 50 220 1.0 6.0 0.00 0.00 0.00 93 1004.8
20260509111949 50 221 1.0 3.0 0.00 0.00 0.00 93 1004.9
20260509111502 49 221 1.0 3.0 0.00 0.00 0.00 93 1004.8
20260509111449 49 221 1.0 2.0 0.00 0.00 0.00 93 1004.8
20260509111024 49 221 0.0 2.0 0.00 0.00 0.00 93 1004.9
20260509110949 48 221 0.0 2.0 0.00 0.00 0.00 92 1004.9
20260509110502 48 221 0.0 1.0 0.00 0.00 0.00 92 1004.9
20260509110449 48 221 0.0 1.0 0.00 0.00 0.00 92 1004.8
20260509110002 48 221 0.0 1.0 0.00 0.00 0.00 92 1004.8
20260509105949 48 221 0.0 1.0 0.00 0.00 0.00 92 1004.8
20260509105502 47 221 0.0 1.0 0.00 0.00 0.00 91 1004.8
20260509105449 47 0 0.0 0.0 0.00 0.00 0.00 91 1004.8
20260509105002 47 0 0.0 0.0 0.00 0.00 0.00 90 1004.8
20260509104949 47 0 0.0 0.0 0.00 0.00 0.00 90 1004.8
20260509104524 47 0 0.0 0.0 0.00 0.00 0.00 90 1004.7
20260509104449 47 0 0.0 0.0 0.00 0.00 0.00 90 1004.7
20260509104003 47 0 0.0 0.0 0.00 0.00 0.00 90 1004.7
20260509103949 47 0 0.0 0.0 0.00 0.00 0.00 90 1004.7
20260509103502 47 0 0.0 0.0 0.00 0.00 0.00 90 1004.5
20260509103449 47 0 0.0 0.0 0.00 0.00 0.00 90 1004.5
20260509103023 48 0 0.0 0.0 0.00 0.00 0.00 90 1004.4
20260509102949 48 0 0.0 0.0 0.00 0.00 0.00 90 1004.4
20260509102524 48 0 0.0 0.0 0.00 0.00 0.00 90 1004.4
20260509102449 48 0 0.0 0.0 0.00 0.00 0.00 90 1004.4
20260509102003 48 0 0.0 0.0 0.00 0.00 0.00 89 1004.6
20260509101949 48 0 0.0 0.0 0.00 0.00 0.00 89 1004.5
20260509101502 48 0 0.0 0.0 0.00 0.00 0.00 89 1004.6
20260509101449 48 0 0.0 0.0 0.00 0.00 0.00 89 1004.6
20260509101003 48 0 0.0 0.0 0.00 0.00 0.00 89 1004.5
20260509100948 48 0 0.0 0.0 0.00 0.00 0.00 89 1004.6
20260509100504 48 0 0.0 0.0 0.00 0.00 0.00 89 1004.5
20260509100448 48 0 0.0 0.0 0.00 0.00 0.00 89 1004.6
20260509100002 48 0 0.0 0.0 0.00 0.00 0.00 89 1004.6
20260509095948 48 0 0.0 0.0 0.00 0.00 0.00 89 1004.6
20260509095502 48 0 0.0 0.0 0.00 0.00 0.00 89 1004.7
20260509095448 48 0 0.0 0.0 0.00 0.00 0.00 89 1004.7
20260509095002 49 0 0.0 0.0 0.00 0.00 0.00 89 1004.6
20260509094948 49 221 0.0 1.0 0.00 0.00 0.00 89 1004.7
20260509094524 49 221 0.0 1.0 0.00 0.00 0.00 89 1004.8
20260509094448 49 221 0.0 1.0 0.00 0.00 0.00 89 1004.7
20260509094003 49 221 0.0 1.0 0.00 0.00 0.00 89 1004.7
20260509093948 49 0 0.0 0.0 0.00 0.00 0.00 89 1004.6
20260509093502 49 0 0.0 0.0 0.00 0.00 0.00 89 1004.6
20260509093448 49 0 0.0 0.0 0.00 0.00 0.00 89 1004.6
20260509093003 49 0 0.0 0.0 0.00 0.00 0.00 89 1004.6
20260509092948 49 0 0.0 0.0 0.00 0.00 0.00 89 1004.6
20260509092503 49 0 0.0 0.0 0.00 0.00 0.00 88 1004.7
20260509092448 49 0 0.0 0.0 0.00 0.00 0.00 88 1004.7
20260509092002 50 221 0.0 1.0 0.00 0.00 0.00 88 1004.8
20260509091948 50 221 0.0 1.0 0.00 0.00 0.00 88 1004.8
20260509091503 50 221 0.0 2.0 0.00 0.00 0.00 89 1004.9
20260509091447 50 221 0.0 2.0 0.00 0.00 0.00 89 1004.9
20260509091024 50 221 0.0 2.0 0.00 0.00 0.00 89 1005.0
20260509090947 50 221 0.0 2.0 0.00 0.00 0.00 89 1005.0
20260509090523 50 221 0.0 2.0 0.00 0.00 0.00 88 1004.9
20260509090447 50 221 0.0 2.0 0.00 0.00 0.00 88 1004.9
20260509090003 50 221 0.0 2.0 0.00 0.00 0.00 88 1004.9
20260509085947 50 221 0.0 2.0 0.00 0.00 0.00 88 1004.9
20260509085503 50 221 0.0 2.0 0.00 0.00 0.00 88 1005.1
20260509085447 50 221 0.0 2.0 0.00 0.00 0.00 88 1005.0
20260509085002 50 221 0.0 2.0 0.00 0.00 0.00 88 1005.1
20260509084947 50 221 0.0 2.0 0.00 0.00 0.00 88 1005.0
20260509084502 50 221 0.0 2.0 0.00 0.00 0.00 88 1005.1
20260509084447 50 221 0.0 2.0 0.00 0.00 0.00 88 1005.1
20260509084003 50 221 0.0 1.0 0.00 0.00 0.00 87 1005.1
20260509083947 50 221 0.0 2.0 0.00 0.00 0.00 87 1005.2
20260509083524 50 221 0.0 2.0 0.00 0.00 0.00 87 1005.2
20260509083447 50 221 0.0 2.0 0.00 0.00 0.00 87 1005.1
20260509083002 50 221 0.0 2.0 0.00 0.00 0.00 87 1005.1
20260509082947 50 221 0.0 2.0 0.00 0.00 0.00 87 1005.0
20260509082503 50 221 0.0 2.0 0.00 0.00 0.00 87 1005.1
20260509082447 50 221 0.0 1.0 0.00 0.00 0.00 87 1005.1
20260509082003 50 221 0.0 1.0 0.00 0.00 0.00 86 1005.0
20260509081947 50 221 0.0 1.0 0.00 0.00 0.00 86 1005.0
20260509081502 50 221 0.0 1.0 0.00 0.00 0.00 86 1005.1
20260509081447 50 0 0.0 0.0 0.00 0.00 0.00 87 1005.1
20260509081003 50 0 0.0 0.0 0.00 0.00 0.00 87 1005.1
20260509080946 50 221 0.0 1.0 0.00 0.00 0.00 87 1005.1
20260509080523 50 221 0.0 3.0 0.00 0.00 0.00 87 1005.0
20260509080446 50 221 0.0 3.0 0.00 0.00 0.00 87 1005.1
20260509080003 51 221 1.0 3.0 0.00 0.00 0.00 87 1005.1
20260509075946 51 221 1.0 3.0 0.00 0.00 0.00 87 1005.1
20260509075503 51 221 1.0 3.0 0.00 0.00 0.00 87 1005.0
20260509075446 51 221 1.0 3.0 0.00 0.00 0.00 87 1005.0
20260509075002 51 221 1.0 4.0 0.00 0.00 0.00 87 1004.9
20260509074946 51 221 1.0 5.0 0.00 0.00 0.00 87 1004.9
20260509074503 51 216 1.0 5.0 0.00 0.00 0.00 87 1004.9
20260509074446 51 216 1.0 5.0 0.00 0.00 0.00 87 1004.9
20260509074003 51 210 1.0 5.0 0.00 0.00 0.00 88 1005.0
20260509073946 51 206 1.0 4.0 0.00 0.00 0.00 88 1005.0
20260509073523 51 205 1.0 3.0 0.00 0.00 0.00 88 1005.1
20260509073446 51 205 1.0 3.0 0.00 0.00 0.00 88 1005.1
20260509073003 51 205 1.0 3.0 0.00 0.00 0.00 87 1005.0
20260509072946 51 205 1.0 2.0 0.00 0.00 0.00 87 1005.0
20260509072503 51 205 1.0 3.0 0.00 0.00 0.00 87 1005.1
20260509072446 51 205 1.0 4.0 0.00 0.00 0.00 87 1005.1
20260509072003 51 206 0.0 4.0 0.00 0.00 0.00 87 1005.0
20260509071946 51 206 1.0 4.0 0.00 0.00 0.00 87 1004.9
20260509071504 51 206 1.0 4.0 0.00 0.00 0.00 87 1004.9
20260509071446 51 206 1.0 3.0 0.00 0.00 0.00 87 1005.1
20260509071003 51 206 1.0 3.0 0.00 0.00 0.00 87 1005.0
20260509070946 51 206 1.0 3.0 0.00 0.00 0.00 87 1005.0
20260509070503 51 206 1.0 4.0 0.00 0.00 0.00 87 1005.1
20260509070445 51 206 1.0 4.0 0.00 0.00 0.00 87 1005.1
20260509070004 51 205 1.0 4.0 0.00 0.00 0.00 87 1005.2
20260509065945 51 205 1.0 4.0 0.00 0.00 0.00 87 1005.3
20260509065503 51 205 0.0 2.0 0.00 0.00 0.00 87 1005.2
20260509065445 51 205 0.0 2.0 0.00 0.00 0.00 87 1005.2
20260509065002 51 205 0.0 3.0 0.00 0.00 0.00 87 1005.3
20260509064945 51 205 1.0 3.0 0.00 0.00 0.00 87 1005.2
20260509064502 51 205 1.0 3.0 0.00 0.00 0.00 87 1005.3
20260509064445 51 205 1.0 3.0 0.00 0.00 0.00 86 1005.3
20260509064024 52 205 1.0 3.0 0.00 0.00 0.00 86 1005.3
20260509063945 52 205 1.0 3.0 0.00 0.00 0.00 86 1005.4
20260509063503 52 205 1.0 3.0 0.00 0.00 0.00 86 1005.5
20260509063445 52 205 1.0 3.0 0.00 0.00 0.00 86 1005.5
20260509063002 52 205 1.0 3.0 0.00 0.00 0.00 86 1005.5
20260509062945 52 205 1.0 3.0 0.00 0.00 0.00 86 1005.5
20260509062503 52 205 1.0 3.0 0.00 0.00 0.00 86 1005.5
20260509062445 52 205 1.0 3.0 0.00 0.00 0.00 86 1005.5
20260509062024 52 205 1.0 3.0 0.00 0.00 0.00 86 1005.6
20260509061945 52 205 1.0 3.0 0.00 0.00 0.00 86 1005.6
20260509061503 52 205 1.0 2.0 0.00 0.00 0.00 85 1005.7
20260509061445 52 205 0.0 2.0 0.00 0.00 0.00 85 1005.7
20260509061002 52 205 0.0 2.0 0.00 0.00 0.00 85 1005.7
20260509060945 52 205 0.0 2.0 0.00 0.00 0.00 85 1005.7
20260509060503 52 205 0.0 2.0 0.00 0.00 0.00 85 1005.8
20260509060445 52 205 1.0 2.0 0.00 0.00 0.00 85 1005.8
20260509060003 52 205 1.0 2.0 0.00 0.00 0.00 85 1005.9
20260509055945 52 205 1.0 3.0 0.00 0.00 0.00 84 1005.9
20260509055502 52 205 1.0 3.0 0.00 0.00 0.00 85 1005.9
20260509055444 52 205 1.0 4.0 0.00 0.00 0.00 85 1006.0
20260509055003 53 204 1.0 4.0 0.00 0.00 0.00 84 1006.0
20260509054944 53 203 1.0 4.0 0.00 0.00 0.00 84 1005.9
20260509054524 53 202 1.0 4.0 0.00 0.00 0.00 84 1006.0
20260509054444 53 202 1.0 3.0 0.00 0.00 0.00 84 1006.0
20260509054024 53 202 1.0 2.0 0.00 0.00 0.00 84 1006.1
20260509053945 53 202 1.0 2.0 0.00 0.00 0.00 84 1006.0
20260509053503 53 202 1.0 3.0 0.00 0.00 0.00 84 1006.1
20260509053444 53 202 1.0 3.0 0.00 0.00 0.00 84 1006.1
20260509053003 53 202 1.0 3.0 0.00 0.00 0.00 84 1006.1
20260509052944 53 202 1.0 3.0 0.00 0.00 0.00 84 1006.1
20260509052503 53 202 1.0 5.0 0.00 0.00 0.00 83 1006.1
20260509052444 53 202 1.0 5.0 0.00 0.00 0.00 83 1006.2
20260509052024 53 202 1.0 5.0 0.00 0.00 0.00 83 1006.2
20260509051944 53 202 2.0 5.0 0.00 0.00 0.00 83 1006.1
20260509051523 54 202 2.0 4.0 0.00 0.00 0.00 83 1006.2
20260509051444 54 202 2.0 4.0 0.00 0.00 0.00 83 1006.3
20260509051004 54 202 2.0 4.0 0.00 0.01 0.00 83 1006.2
20260509050944 54 202 2.0 4.0 0.00 0.01 0.00 83 1006.2
20260509050504 54 202 1.0 3.0 0.00 0.01 0.00 83 1006.3
20260509050444 54 202 1.0 3.0 0.00 0.01 0.00 83 1006.3
20260509050003 54 202 1.0 3.0 0.00 0.01 0.00 82 1006.4
20260509045944 54 202 1.0 3.0 0.00 0.01 0.00 82 1006.4
20260509045503 54 202 1.0 3.0 0.00 0.02 0.00 82 1006.4
20260509045444 54 202 1.0 3.0 0.00 0.02 0.00 82 1006.4
20260509045004 54 202 1.0 4.0 0.00 0.03 0.00 82 1006.3
20260509044944 54 202 1.0 4.0 0.00 0.03 0.00 82 1006.4
20260509044503 54 202 1.0 4.0 0.00 0.04 0.00 82 1006.4
20260509044443 54 202 1.0 4.0 0.00 0.04 0.00 82 1006.4
20260509044003 54 202 1.0 3.0 0.00 0.04 0.00 82 1006.4
20260509043943 54 202 1.0 3.0 0.00 0.04 0.00 81 1006.4
20260509043503 54 202 1.0 3.0 0.00 0.04 0.00 81 1006.5
20260509043443 54 202 1.0 3.0 0.00 0.04 0.00 81 1006.4
20260509043003 54 202 1.0 3.0 0.00 0.04 0.00 81 1006.5
20260509042943 54 202 1.0 3.0 0.00 0.04 0.00 81 1006.4
20260509042503 54 202 1.0 4.0 0.00 0.04 0.00 81 1006.5
20260509042443 55 202 1.0 4.0 0.00 0.04 0.00 81 1006.5
20260509042003 55 201 2.0 4.0 0.00 0.04 0.00 81 1006.5
20260509041943 55 201 2.0 4.0 0.00 0.04 0.00 81 1006.5
20260509041503 55 200 2.0 3.0 0.00 0.04 0.00 80 1006.5
20260509041443 55 200 2.0 4.0 0.00 0.04 0.00 80 1006.6
20260509041003 55 200 2.0 4.0 0.00 0.04 0.00 80 1006.7
20260509040943 55 200 2.0 4.0 0.00 0.04 0.00 80 1006.7
20260509040503 55 200 2.0 4.0 0.00 0.04 0.00 80 1006.7
20260509040443 55 200 2.0 4.0 0.00 0.04 0.00 80 1006.7
20260509040004 55 200 2.0 4.0 0.00 0.04 0.00 80 1006.8
20260509035943 55 200 2.0 4.0 0.00 0.04 0.04 80 1006.8
20260509035503 55 200 2.0 4.0 0.00 0.04 0.04 80 1006.7
20260509035443 55 200 2.0 4.0 0.00 0.04 0.04 80 1006.7
20260509035024 55 200 1.0 4.0 0.00 0.04 0.04 80 1006.7
20260509034943 55 200 1.0 4.0 0.00 0.04 0.04 80 1006.7
20260509034524 55 200 1.0 3.0 0.00 0.04 0.04 80 1006.7
20260509034443 55 200 1.0 3.0 0.00 0.04 0.04 80 1006.8
20260509034003 55 200 1.0 3.0 0.00 0.04 0.04 79 1006.8
20260509033943 55 200 1.0 3.0 0.00 0.04 0.04 79 1006.8
20260509033503 55 200 1.0 3.0 0.00 0.04 0.04 79 1006.7
20260509033442 55 200 2.0 3.0 0.00 0.04 0.04 79 1006.8
20260509033003 56 200 2.0 4.0 0.00 0.04 0.04 79 1006.7
20260509032942 56 200 2.0 4.0 0.00 0.04 0.04 79 1006.7
20260509032503 56 199 2.0 5.0 0.00 0.04 0.04 79 1006.8
20260509032442 56 199 2.0 5.0 0.00 0.04 0.04 79 1006.8
20260509032003 56 199 3.0 5.0 0.00 0.04 0.04 79 1006.8
20260509031942 56 199 3.0 5.0 0.00 0.04 0.04 79 1006.9
20260509031503 56 204 3.0 6.0 0.00 0.04 0.04 79 1006.9
20260509031442 56 206 3.0 6.0 0.00 0.04 0.04 79 1007.0
20260509031004 56 211 3.0 6.0 0.00 0.04 0.04 79 1006.9
20260509030942 56 213 2.0 6.0 0.00 0.04 0.04 79 1007.0
20260509030503 56 215 2.0 5.0 0.00 0.04 0.04 79 1007.0
20260509030442 56 215 3.0 5.0 0.00 0.04 0.04 79 1006.9
20260509030003 56 216 3.0 8.0 0.00 0.04 0.04 79 1007.0
20260509025942 56 215 3.0 8.0 0.00 0.04 0.04 79 1007.0
20260509025503 56 213 3.0 8.0 0.00 0.04 0.04 79 1007.0
20260509025442 56 212 3.0 8.0 0.00 0.04 0.04 79 1007.0
20260509025003 56 210 4.0 8.0 0.00 0.04 0.04 79 1007.0
20260509024942 56 211 4.0 8.0 0.00 0.04 0.04 79 1007.0
20260509024524 56 208 4.0 8.0 0.00 0.04 0.04 79 1007.1
20260509024442 56 208 4.0 8.0 0.00 0.04 0.04 79 1007.1
20260509024024 56 207 4.0 8.0 0.00 0.04 0.04 79 1007.2
20260509023942 56 205 4.0 8.0 0.00 0.04 0.04 79 1007.2
20260509023503 56 198 3.0 8.0 0.00 0.04 0.04 79 1007.1
20260509023442 56 197 3.0 8.0 0.00 0.04 0.04 79 1007.1
20260509023024 56 195 3.0 7.0 0.00 0.04 0.04 79 1007.1
20260509022942 56 196 3.0 7.0 0.00 0.04 0.04 79 1007.0
20260509022503 56 203 3.0 7.0 0.00 0.04 0.04 79 1007.0
20260509022441 56 204 3.0 7.0 0.00 0.04 0.04 79 1007.0
20260509022003 56 200 4.0 9.0 0.00 0.04 0.04 79 1007.0
20260509021941 56 200 4.0 9.0 0.00 0.04 0.04 78 1007.0
20260509021504 56 202 4.0 9.0 0.00 0.04 0.04 78 1007.0
20260509021441 56 204 4.0 9.0 0.00 0.04 0.04 78 1007.0
20260509021024 56 201 5.0 10.0 0.00 0.04 0.04 78 1006.9
20260509020941 56 202 5.0 10.0 0.00 0.04 0.04 78 1006.9
20260509020503 56 200 5.0 10.0 0.00 0.04 0.04 78 1006.8
20260509020441 56 198 5.0 10.0 0.00 0.04 0.04 78 1006.8
20260509020004 56 199 4.0 10.0 0.00 0.04 0.04 78 1006.8
20260509015941 56 197 4.0 9.0 0.00 0.04 0.04 78 1006.7
20260509015503 56 195 4.0 8.0 0.00 0.04 0.04 78 1006.7
20260509015441 56 192 3.0 8.0 0.00 0.04 0.04 78 1006.7
20260509015003 56 196 4.0 8.0 0.00 0.04 0.04 77 1006.7
20260509014941 57 198 3.0 8.0 0.00 0.04 0.04 77 1006.6
20260509014525 57 195 4.0 8.0 0.00 0.04 0.04 77 1006.5
20260509014441 57 191 4.0 8.0 0.00 0.04 0.04 76 1006.5
20260509014004 57 184 4.0 8.0 0.00 0.04 0.04 76 1006.4
20260509013941 57 178 3.0 8.0 0.00 0.04 0.04 76 1006.4
20260509013503 57 183 3.0 6.0 0.00 0.04 0.04 76 1006.4
20260509013441 57 188 3.0 6.0 0.00 0.04 0.04 75 1006.4
20260509013024 57 181 3.0 7.0 0.00 0.04 0.04 75 1006.4
20260509012940 57 185 3.0 7.0 0.00 0.04 0.04 75 1006.4
20260509012504 57 177 3.0 8.0 0.00 0.04 0.04 75 1006.4
20260509012440 57 175 3.0 8.0 0.00 0.04 0.04 74 1006.4
20260509012003 57 170 3.0 8.0 0.00 0.04 0.04 74 1006.3
20260509011940 57 167 3.0 8.0 0.00 0.04 0.04 74 1006.3
20260509011503 57 170 3.0 10.0 0.00 0.04 0.04 74 1006.3
20260509011440 57 173 3.0 10.0 0.00 0.04 0.04 74 1006.3
20260509011003 57 187 3.0 10.0 0.00 0.04 0.04 74 1006.3
20260509010940 57 193 3.0 10.0 0.00 0.04 0.04 74 1006.4
20260509010524 57 198 3.0 7.0 0.00 0.04 0.04 74 1006.4
20260509010440 57 193 3.0 9.0 0.00 0.04 0.04 74 1006.2
20260509010003 58 184 3.0 9.0 0.00 0.04 0.04 73 1006.2
20260509005940 58 181 3.0 9.0 0.00 0.04 0.04 74 1006.3
20260509005503 58 175 3.0 9.0 0.00 0.04 0.04 74 1006.3
20260509005440 58 175 3.0 6.0 0.00 0.04 0.04 74 1006.2
20260509005004 58 174 3.0 7.0 0.00 0.04 0.04 74 1006.3
20260509004940 58 172 3.0 7.0 0.00 0.04 0.04 74 1006.2
20260509004524 58 168 3.0 7.0 0.00 0.04 0.04 73 1006.2
20260509004440 58 169 4.0 9.0 0.00 0.04 0.04 73 1006.2
20260509004004 58 161 4.0 9.0 0.00 0.04 0.04 74 1006.2
20260509003940 58 162 4.0 9.0 0.00 0.04 0.04 74 1006.2
20260509003501 58 157 4.0 9.0 0.00 0.04 0.04 74 1006.1
20260509003410 58 155 4.0 9.0 0.00 0.04 0.04 74 1006.1
20260509003001 58 156 4.0 9.0 0.00 0.04 0.04 74 1006.0
20260509002910 58 156 4.0 9.0 0.00 0.04 0.04 74 1006.0
20260509002501 58 158 4.0 9.0 0.00 0.04 0.04 74 1006.1
20260509002409 58 157 3.0 8.0 0.00 0.04 0.04 75 1006.1
20260509002001 59 166 3.0 6.0 0.00 0.04 0.04 76 1006.1
20260509001909 59 167 3.0 6.0 0.00 0.04 0.04 76 1006.1
20260509001501 59 169 3.0 6.0 0.00 0.04 0.04 76 1006.1
20260509001409 59 170 3.0 6.0 0.00 0.04 0.04 76 1006.1
20260509001002 59 167 3.0 6.0 0.00 0.04 0.04 76 1006.1
20260509000909 59 167 3.0 6.0 0.00 0.04 0.04 76 1006.1
20260509000501 59 163 3.0 8.0 0.00 0.04 0.04 75 1006.1
20260509000410 59 163 3.0 8.0 0.00 0.04 0.04 75 1006.1
20260509000001 59 164 4.0 9.0 0.00 0.04 0.04 75 1006.0
20260508235909 59 161 4.0 9.0 0.00 0.04 0.04 75 1006.0
20260508235502 59 164 3.0 9.0 0.00 0.04 0.04 75 1006.0
20260508235409 59 163 3.0 9.0 0.00 0.04 0.04 75 1006.0
20260508235022 59 160 3.0 7.0 0.00 0.04 0.04 74 1006.0
20260508234909 59 161 3.0 7.0 0.00 0.04 0.04 74 1006.0
20260508234502 59 154 2.0 6.0 0.00 0.04 0.04 74 1006.1
20260508234409 59 152 2.0 6.0 0.00 0.04 0.04 74 1006.0
20260508234001 59 142 2.0 4.0 0.00 0.04 0.04 74 1006.1
20260508233909 59 140 2.0 5.0 0.00 0.04 0.04 74 1006.1
20260508233501 60 143 2.0 7.0 0.00 0.04 0.04 75 1006.1
20260508233409 60 143 3.0 7.0 0.00 0.04 0.04 75 1006.1
20260508233001 60 144 3.0 7.0 0.00 0.04 0.04 75 1006.2
20260508232909 60 148 3.0 7.0 0.00 0.04 0.04 75 1006.2
20260508232502 60 158 3.0 8.0 0.00 0.04 0.04 74 1006.2
20260508232409 60 160 3.0 8.0 0.00 0.04 0.04 74 1006.2
20260508232001 60 169 3.0 8.0 0.00 0.04 0.04 74 1006.2
20260508231909 60 166 4.0 8.0 0.00 0.04 0.04 74 1006.2
20260508231501 60 165 3.0 9.0 0.00 0.04 0.04 74 1006.2
20260508231409 60 166 4.0 10.0 0.00 0.04 0.04 74 1006.2
20260508231001 60 164 4.0 10.0 0.00 0.04 0.04 73 1006.2
20260508230908 60 166 4.0 10.0 0.00 0.04 0.04 73 1006.3
20260508230502 60 163 5.0 11.0 0.00 0.04 0.04 72 1006.2
20260508230408 60 162 5.0 11.0 0.00 0.04 0.04 71 1006.2
20260508230001 61 164 5.0 11.0 0.00 0.04 0.04 71 1006.2
20260508225908 61 165 5.0 11.0 0.00 0.04 0.04 70 1006.3
20260508225522 61 167 4.0 10.0 0.00 0.04 0.04 70 1006.2
20260508225408 61 167 4.0 10.0 0.00 0.04 0.04 70 1006.2
20260508225002 61 158 4.0 10.0 0.00 0.04 0.04 69 1006.3
20260508224908 61 156 4.0 10.0 0.00 0.04 0.04 69 1006.3
20260508224501 62 154 4.0 10.0 0.00 0.04 0.04 67 1006.3
20260508224408 62 153 4.0 10.0 0.00 0.04 0.04 67 1006.3
20260508224002 63 169 4.0 11.0 0.00 0.04 0.04 65 1006.3
20260508223908 63 171 4.0 11.0 0.00 0.04 0.04 64 1006.3
20260508223501 63 177 4.0 11.0 0.00 0.04 0.04 58 1006.3
20260508223408 62 178 5.0 11.0 0.00 0.04 0.04 58 1006.3
20260508223001 63 176 4.0 10.0 0.00 0.04 0.04 58 1006.3
20260508222908 63 173 4.0 10.0 0.00 0.04 0.04 58 1006.3
20260508222502 63 167 4.0 10.0 0.00 0.04 0.04 59 1006.3
20260508222408 63 164 4.0 9.0 0.00 0.04 0.04 61 1006.3
20260508222001 63 168 4.0 9.0 0.00 0.04 0.04 61 1006.3
20260508221908 63 173 4.0 12.0 0.00 0.04 0.04 59 1006.3
20260508221523 63 182 4.0 12.0 0.00 0.04 0.04 60 1006.3
20260508221408 63 182 5.0 12.0 0.00 0.04 0.04 59 1006.4
20260508221001 62 174 5.0 12.0 0.00 0.04 0.04 60 1006.4
20260508220908 62 173 4.0 8.0 0.00 0.04 0.04 60 1006.3
20260508220522 62 173 5.0 12.0 0.00 0.04 0.04 62 1006.3
20260508220408 62 172 5.0 12.0 0.00 0.04 0.04 62 1006.3
20260508220002 61 185 4.0 12.0 0.00 0.04 0.04 61 1006.4
20260508215908 61 185 4.0 12.0 0.00 0.04 0.04 61 1006.5
20260508215502 60 172 3.0 6.0 0.00 0.04 0.04 64 1006.5
20260508215408 60 166 2.0 6.0 0.00 0.04 0.04 64 1006.6
20260508215001 59 106 2.0 5.0 0.00 0.04 0.04 68 1006.4
20260508214907 59 98 2.0 4.0 0.00 0.04 0.04 71 1006.5
20260508214501 59 91 3.0 6.0 0.00 0.04 0.04 72 1006.6
20260508214407 59 90 3.0 6.0 0.00 0.04 0.04 72 1006.7
20260508214002 59 88 3.0 6.0 0.00 0.04 0.04 72 1006.7
20260508213907 59 88 3.0 6.0 0.00 0.04 0.04 73 1006.7
20260508213501 58 88 2.0 6.0 0.00 0.04 0.04 72 1006.8
20260508213407 58 88 2.0 6.0 0.00 0.04 0.04 73 1006.8
20260508213002 58 89 2.0 6.0 0.00 0.04 0.04 76 1006.7
20260508212907 57 89 2.0 6.0 0.00 0.04 0.04 77 1006.7
20260508212501 57 95 2.0 7.0 0.00 0.04 0.04 77 1006.9
20260508212407 57 95 3.0 7.0 0.00 0.04 0.04 77 1006.9
20260508212001 57 99 4.0 8.0 0.00 0.04 0.04 77 1006.9
20260508211907 57 100 4.0 8.0 0.00 0.04 0.04 77 1006.9
20260508211502 57 100 4.0 8.0 0.00 0.04 0.04 76 1006.9
20260508211407 58 101 3.0 8.0 0.00 0.04 0.04 75 1006.9
20260508211022 58 98 3.0 8.0 0.00 0.04 0.04 76 1007.0
20260508210907 57 97 4.0 8.0 0.00 0.04 0.04 77 1007.0
20260508210501 57 95 5.0 9.0 0.00 0.04 0.04 78 1006.9
20260508210407 57 95 5.0 9.0 0.00 0.04 0.04 78 1006.9
20260508210002 56 97 6.0 9.0 0.00 0.04 0.04 78 1007.0
20260508205907 56 97 6.0 9.0 0.00 0.04 0.04 78 1007.0
20260508205501 56 99 6.0 9.0 0.00 0.04 0.04 77 1007.1
20260508205407 56 99 5.0 9.0 0.00 0.04 0.04 77 1007.1
20260508205001 56 98 6.0 9.0 0.00 0.04 0.04 76 1007.1
20260508204907 56 99 6.0 10.0 0.00 0.04 0.04 76 1007.1
20260508204502 57 98 6.0 10.0 0.00 0.04 0.04 75 1007.1
20260508204407 57 97 6.0 10.0 0.00 0.04 0.04 75 1007.2
20260508204002 57 97 5.0 10.0 0.00 0.04 0.04 74 1007.2
20260508203907 57 95 4.0 9.0 0.00 0.04 0.04 76 1007.3
20260508203522 57 97 4.0 9.0 0.00 0.04 0.04 75 1007.3
20260508203407 57 97 4.0 7.0 0.00 0.04 0.04 76 1007.3
20260508203002 56 95 4.0 7.0 0.00 0.04 0.04 76 1007.4
20260508202906 56 95 4.0 7.0 0.00 0.04 0.04 75 1007.4
20260508202501 56 93 4.0 7.0 0.00 0.04 0.04 75 1007.5
20260508202406 56 93 3.0 7.0 0.00 0.04 0.04 76 1007.5
20260508202001 56 94 4.0 9.0 0.00 0.04 0.04 76 1007.6
20260508201906 56 96 4.0 9.0 0.00 0.04 0.04 76 1007.6
20260508201502 56 98 5.0 9.0 0.00 0.04 0.04 78 1007.7
20260508201406 56 98 5.0 9.0 0.00 0.04 0.04 77 1007.8
20260508201001 56 102 6.0 8.0 0.00 0.04 0.04 75 1007.8
20260508200906 56 102 6.0 9.0 0.00 0.04 0.04 75 1007.8
20260508200501 56 101 7.0 10.0 0.00 0.04 0.04 74 1007.9
20260508200406 56 102 7.0 10.0 0.00 0.04 0.04 73 1007.9
20260508200002 56 99 7.0 11.0 0.00 0.04 0.04 72 1008.0
20260508195906 56 98 7.0 11.0 0.00 0.04 0.04 72 1008.0
20260508195502 56 97 6.0 11.0 0.00 0.04 0.04 71 1008.0
20260508195406 56 96 6.0 11.0 0.00 0.04 0.04 70 1008.0
20260508195001 56 96 6.0 10.0 0.00 0.04 0.04 70 1008.1
20260508194906 56 96 6.0 10.0 0.00 0.04 0.04 71 1008.1
20260508194502 56 96 5.0 10.0 0.00 0.04 0.04 71 1008.4
20260508194406 56 97 5.0 10.0 0.00 0.04 0.04 71 1008.4
20260508194002 57 97 5.0 9.0 0.00 0.04 0.04 69 1008.5
20260508193905 57 97 5.0 8.0 0.00 0.04 0.04 69 1008.5
20260508193522 57 95 5.0 8.0 0.00 0.04 0.04 70 1008.5
20260508193405 57 94 5.0 8.0 0.00 0.04 0.04 70 1008.6
20260508193001 57 94 5.0 8.0 0.00 0.04 0.04 67 1008.7
20260508192905 57 93 5.0 8.0 0.00 0.04 0.04 67 1008.7
20260508192502 57 94 4.0 8.0 0.00 0.04 0.04 66 1008.9
20260508192405 57 94 5.0 8.0 0.00 0.04 0.04 66 1008.9
20260508192002 57 93 5.0 8.0 0.00 0.04 0.04 66 1008.8
20260508191905 57 93 4.0 8.0 0.00 0.04 0.04 66 1008.9
20260508191501 57 93 5.0 8.0 0.00 0.04 0.04 65 1008.9
20260508191405 57 93 4.0 8.0 0.00 0.04 0.04 64 1008.8
20260508191002 56 93 4.0 7.0 0.00 0.04 0.04 67 1009.0
20260508190905 56 94 5.0 8.0 0.00 0.04 0.04 66 1009.0
20260508190502 56 96 5.0 8.0 0.00 0.04 0.04 66 1009.0
20260508190405 56 98 5.0 8.0 0.00 0.04 0.04 67 1009.0
20260508190001 56 102 5.0 8.0 0.00 0.04 0.04 67 1009.1
20260508185905 56 101 5.0 8.0 0.00 0.04 0.04 67 1009.0
20260508185523 56 101 5.0 8.0 0.00 0.04 0.04 66 1009.0
20260508185405 56 101 5.0 8.0 0.00 0.04 0.04 68 1009.0
20260508185002 56 98 5.0 9.0 0.00 0.04 0.04 65 1009.1
20260508184905 56 99 5.0 9.0 0.00 0.04 0.04 65 1009.1
20260508184501 56 101 5.0 9.0 0.00 0.04 0.04 63 1009.1
20260508184404 56 101 5.0 9.0 0.00 0.04 0.04 63 1009.1
20260508184023 56 103 5.0 8.0 0.00 0.04 0.04 66 1009.1
20260508183904 56 103 5.0 8.0 0.00 0.04 0.04 65 1009.1
20260508183502 56 102 5.0 8.0 0.00 0.04 0.04 66 1009.1
20260508183404 56 102 5.0 8.0 0.00 0.04 0.04 67 1009.1
20260508183002 56 100 5.0 8.0 0.00 0.04 0.04 67 1009.2
20260508182904 56 101 5.0 8.0 0.00 0.04 0.04 68 1009.2
20260508182502 56 102 5.0 8.0 0.00 0.04 0.04 68 1009.3
20260508182404 55 102 5.0 8.0 0.00 0.04 0.04 67 1009.3
20260508182002 56 101 5.0 8.0 0.00 0.04 0.04 67 1009.4
20260508181904 56 100 4.0 8.0 0.00 0.04 0.04 69 1009.4
20260508181502 55 97 5.0 8.0 0.00 0.04 0.04 68 1009.4
20260508181404 55 97 5.0 8.0 0.00 0.04 0.04 68 1009.5
20260508181002 55 97 5.0 8.0 0.00 0.04 0.04 68 1009.6
20260508180904 55 97 6.0 9.0 0.00 0.04 0.04 68 1009.5
20260508180523 55 96 6.0 9.0 0.00 0.04 0.04 67 1009.4
20260508180404 56 95 5.0 9.0 0.00 0.04 0.04 65 1009.5
20260508180002 56 102 5.0 9.0 0.00 0.04 0.04 65 1009.6
20260508175904 56 106 4.0 7.0 0.00 0.04 0.04 65 1009.7
20260508175502 57 118 4.0 7.0 0.00 0.04 0.04 65 1009.7
20260508175404 57 119 3.0 7.0 0.00 0.04 0.04 64 1009.8
20260508175002 57 106 3.0 7.0 0.00 0.04 0.04 66 1009.8
20260508174904 56 100 3.0 7.0 0.00 0.04 0.04 66 1009.8
20260508174502 56 87 3.0 6.0 0.00 0.04 0.04 66 1010.0
20260508174404 56 87 3.0 5.0 0.00 0.04 0.04 65 1009.9
20260508174001 56 94 3.0 8.0 0.00 0.04 0.04 63 1010.1
20260508173903 56 94 3.0 8.0 0.00 0.04 0.04 65 1010.1
20260508173502 56 97 4.0 8.0 0.00 0.04 0.04 64 1010.2
20260508173403 56 97 4.0 8.0 0.00 0.04 0.04 64 1010.2
20260508173002 56 91 4.0 7.0 0.00 0.04 0.04 66 1010.2
20260508172903 56 91 4.0 7.0 0.00 0.04 0.04 64 1010.2
20260508172501 56 92 3.0 7.0 0.00 0.04 0.04 64 1010.4
20260508172403 56 94 4.0 8.0 0.00 0.04 0.04 64 1010.4
20260508172023 56 95 4.0 9.0 0.00 0.04 0.04 66 1010.4
20260508171903 56 97 4.0 9.0 0.00 0.04 0.04 66 1010.4
20260508171502 56 97 4.0 9.0 0.00 0.04 0.04 64 1010.5
20260508171403 56 98 3.0 9.0 0.00 0.04 0.04 65 1010.5
20260508171001 57 104 3.0 7.0 0.00 0.04 0.04 64 1010.5
20260508170903 57 107 3.0 7.0 0.00 0.04 0.04 65 1010.5
20260508170502 57 126 3.0 5.0 0.00 0.04 0.04 67 1010.5
20260508170403 57 130 3.0 5.0 0.00 0.04 0.04 66 1010.5
20260508170002 57 142 2.0 5.0 0.00 0.04 0.04 66 1010.5
20260508165903 57 143 2.0 5.0 0.00 0.04 0.04 66 1010.5
20260508165501 56 140 3.0 8.0 0.00 0.04 0.04 67 1010.6
20260508165403 56 137 3.0 8.0 0.00 0.04 0.04 65 1010.7
20260508165002 56 129 3.0 8.0 0.00 0.04 0.04 65 1010.7
20260508164903 56 125 3.0 8.0 0.00 0.04 0.04 66 1010.8
20260508164502 56 109 3.0 7.0 0.00 0.04 0.04 67 1010.8
20260508164403 56 105 3.0 7.0 0.00 0.04 0.04 68 1010.9
20260508164002 56 97 3.0 6.0 0.00 0.04 0.04 68 1011.0
20260508163903 55 101 3.0 5.0 0.00 0.04 0.04 69 1010.9
20260508163503 55 111 3.0 6.0 0.00 0.04 0.04 70 1011.0
20260508163403 55 118 3.0 6.0 0.00 0.04 0.04 70 1011.1
20260508163002 54 120 3.0 6.0 0.00 0.04 0.04 70 1011.1
20260508162903 54 115 3.0 6.0 0.00 0.04 0.04 70 1011.1
20260508162501 54 115 3.0 7.0 0.00 0.04 0.04 70 1011.2
20260508162402 54 116 3.0 7.0 0.00 0.04 0.04 71 1011.2
20260508162001 53 131 4.0 8.0 0.00 0.04 0.04 72 1011.1
20260508161902 53 135 4.0 8.0 0.00 0.04 0.04 72 1011.0
20260508161502 53 135 4.0 8.0 0.00 0.04 0.04 69 1011.1
20260508161402 53 135 4.0 8.0 0.00 0.04 0.04 70 1011.1
20260508161001 54 128 3.0 8.0 0.00 0.04 0.04 71 1011.1
20260508160902 54 126 3.0 8.0 0.00 0.04 0.04 71 1011.2